#timestamp,LO_Frequency,Hit,StdDev 
1642705215.1,286046997.4,N
1642705216.0,286046997.4,N
1642705235.8,286046995.6,Y
1642705255.7,286046997.1,P
1642705275.5,286046999.6,N
1642705295.3,286046999.5,N
1642705315.2,286046998.7,N
1642705335.0,286046998.4,N
1642705335.9,286046998.4,N
1642705355.7,286046999.3,N
1642705375.6,286046999.0,N
1642705395.4,286046998.9,N
1642705415.3,286046998.9,N
1642705435.1,286046998.8,N
1642705436.0,286046998.8,N
1642705455.8,286046999.4,N
1642705475.7,286046998.7,N
1642705495.5,286046997.0,Y
1642705515.3,286046998.6,P
1642705535.2,286046998.8,P
1642705555.0,286047001.1,P
1642705555.9,286047001.1,N
1642705575.8,286046999.3,N
1642705595.6,286046996.6,Y
1642705615.4,286046998.5,P
1642705635.3,286046999.3,N
1642705655.1,286046999.4,N
1642705675.9,286046999.4,N
1642705695.7,286046998.4,Y
1642705715.5,286046998.1,P
1642705735.4,286047001.0,N
1642705755.2,286047000.4,N
1642705775.0,286047000.5,N
1642705775.9,286047000.5,N
1642705795.8,286046998.4,N
1642705815.6,286046997.2,N
1642705835.5,286046996.9,N
1642705855.3,286046997.4,N
1642705875.1,286046996.6,N
1642705895.9,286046997.7,N
1642705915.7,286046996.8,N
1642705935.5,286046999.0,N
1642705955.4,286046999.4,N
1642705975.2,286046998.9,N
1642705995.1,286046996.5,N
1642705996.0,286046996.5,N
1642706015.8,286046999.2,N
1642706035.6,286046997.1,N
1642706055.5,286046996.7,N
1642706075.3,286046998.5,N
1642706095.1,286046998.7,N
1642706115.9,286046999.0,N
1642706135.7,286046998.8,N
1642706155.6,286046998.6,N
1642706175.4,286046996.6,N
1642706195.2,286046996.8,N
1642706215.1,286046999.2,N
1642706216.0,286046999.2,N
1642706235.8,286046999.6,N
1642706255.7,286047000.6,N
1642706275.5,286046998.8,N
1642706295.3,286046998.7,N
1642706315.2,286046998.4,N
1642706335.0,286046998.8,N
1642706335.9,286046998.8,N
1642706355.8,286046998.4,N
1642706375.6,286046998.6,N
1642706395.4,286046998.8,N
1642706415.3,286046997.1,N
1642706435.1,286046996.7,Y
1642706455.8,286047000.6,P
1642706475.7,286047000.4,N
1642706495.5,286046999.7,N
1642706515.4,286047002.1,N
1642706535.2,286047001.4,N
1642706555.0,286047001.5,N
1642706555.9,286047001.5,N
1642706575.8,286047001.8,N
1642706595.6,286047002.6,N
1642706615.4,286046999.8,N
1642706635.3,286047000.1,N
1642706655.1,286047000.6,N
1642706675.9,286047001.0,N
1642706695.7,286047001.1,N
1642706715.5,286047001.1,N
1642706735.4,286047000.8,N
1642706755.2,286046998.2,N
1642706775.0,286047000.6,N
1642706775.9,286047000.6,N
1642706795.8,286047000.9,N
1642706815.6,286047002.8,N
1642706835.5,286047000.7,N
1642706855.3,286046999.7,N
1642706875.1,286047002.8,N
1642706895.9,286047001.1,N
1642706915.7,286047000.0,N
1642706935.5,286046999.9,N
1642706955.4,286047001.0,N
1642706975.2,286047000.8,N
1642706995.1,286047001.0,N
1642706996.0,286047001.0,N
1642707015.8,286046998.3,N
1642707035.6,286046998.6,N
1642707055.5,286046998.6,N
1642707075.3,286046999.2,N
1642707095.1,286046999.2,N
1642707115.9,286046997.1,N
1642707135.7,286046997.0,N
1642707155.6,286046997.5,N
1642707175.4,286046997.8,N
1642707195.2,286046997.9,N
1642707215.1,286046995.0,Y
1642707216.0,286046995.0,P
1642707235.8,286046997.5,N
1642707255.7,286046995.0,N
1642707275.5,286046999.6,N
1642707295.3,286046999.0,N
1642707315.2,286046998.6,N
1642707335.9,286046999.2,N
1642707355.7,286046998.7,N
1642707375.6,286046997.4,N
1642707395.4,286046999.6,N
1642707415.2,286046996.9,N
1642707435.1,286046997.3,N
1642707436.0,286046997.3,N
1642707455.8,286046997.0,N
1642707475.7,286046997.3,N
1642707495.5,286046999.4,N
1642707515.3,286046997.1,N
1642707535.2,286046998.3,N
1642707555.0,286046996.6,N
1642707555.9,286046996.6,N
1642707575.8,286046997.0,N
1642707595.6,286046999.4,N
1642707615.4,286047001.0,N
1642707635.3,286047000.2,N
1642707655.1,286047000.8,N
1642707675.8,286047000.4,N
1642707695.7,286047000.8,N
1642707715.5,286047004.4,N
1642707735.4,286047002.2,N
1642707755.2,286047000.5,N
1642707775.0,286047000.6,N
1642707775.9,286047000.6,N
1642707795.8,286047000.6,N
1642707815.6,286046998.2,N
1642707835.4,286046998.4,N
1642707855.3,286046998.5,N
1642707875.1,286046998.4,N
1642707895.9,286046998.4,N
1642707915.7,286046999.9,N
1642707935.5,286047000.4,N
1642707955.4,286047000.9,N
1642707975.2,286046998.2,N
1642707995.0,286047001.1,N
1642707995.9,286047001.1,N
1642708015.8,286046998.2,N
1642708035.6,286046998.4,N
1642708055.5,286046998.9,N
1642708075.3,286047001.2,N
1642708095.1,286047000.9,N
1642708115.9,286046998.1,N
1642708135.7,286047001.2,N
1642708155.5,286047000.8,N
1642708175.4,286047000.0,N
1642708195.2,286047002.7,N
1642708215.1,286046998.8,N
1642708216.0,286046998.8,N
1642708235.8,286046996.5,N
1642708255.6,286046995.0,Y
1642708275.5,286046996.9,P
1642708295.3,286046999.1,N
1642708315.2,286046998.8,N
1642708335.9,286046999.5,N
1642708355.7,286046999.4,N
1642708375.6,286046998.1,N
1642708395.4,286047000.3,N
1642708415.2,286047000.5,N
1642708435.1,286047001.1,N
1642708436.0,286047001.1,N
1642708455.8,286047000.7,N
1642708475.7,286046998.6,N
1642708495.5,286046998.4,N
1642708515.3,286047000.9,N
1642708535.2,286047001.0,N
1642708555.0,286047000.4,N
1642708555.9,286047000.4,N
1642708575.7,286047001.1,N
1642708595.6,286047000.4,N
1642708615.4,286046998.1,N
1642708635.3,286046997.0,N
1642708655.1,286046999.1,N
1642708656.0,286046999.1,N
1642708675.8,286046997.8,N
1642708695.7,286046996.9,N
1642708715.5,286046996.5,N
1642708735.4,286046999.6,N
1642708755.2,286046999.0,N
1642708775.0,286046998.4,N
1642708775.9,286046998.4,N
1642708795.8,286046998.4,N
